Location: Unspecified
(0.0000°N, 0.0000°E)
Time: 23:26:51
(UTC+00:00)

Tiros 1 - Visible Passes

Search period start: 19 January 2017 00:00
Search period end: 29 January 2017 00:00
Orbit: 630 x 665 km, 48.4° (Epoch: 19 January)

Date Brightness Start Highest point End Pass type
(mag) Time Alt. Az. Time Alt. Az. Time Alt. Az.
19 Jan 7.2 19:46:14 10° SSW 19:50:42 57° SE 19:50:42 57° SE visible
20 Jan 9.0 18:32:12 10° SSE 18:34:57 15° SE 18:37:40 10° E visible
20 Jan 8.3 20:12:38 10° WSW 20:16:25 38° WNW 20:16:25 38° WNW visible
21 Jan 7.4 18:56:41 10° SSW 19:01:10 50° SE 19:04:28 17° ENE visible
21 Jan 9.9 20:41:21 10° WNW 20:42:12 12° WNW 20:42:12 12° WNW visible
22 Jan 8.0 19:22:56 10° WSW 19:27:21 45° NW 19:30:17 19° NNE visible
23 Jan 9.6 19:51:15 10° W 19:53:36 14° NW 19:55:58 10° NNW visible
24 Jan 7.9 18:33:15 10° SW 18:37:43 50° NW 18:42:13 10° NNE visible
25 Jan 9.2 05:05:02 10° N 05:08:49 23° NE 05:12:35 10° ESE visible
25 Jan 9.6 19:01:15 10° W 19:03:57 15° NW 19:06:41 10° NNW visible
26 Jan 7.4 05:30:14 10° NW 05:35:01 76° NE 05:39:49 10° SE visible
27 Jan 9.2 04:17:46 18° NNE 04:19:09 21° NE 04:22:43 10° E visible
28 Jan 7.4 04:43:37 38° NNW 04:45:22 67° NE 04:50:09 10° SE visible
